Powrót do katalogu

STARLINK-30351

AktywnyŁącznośćVLEO
NORAD 57738·PAYLOAD·🇺🇸 United States

Wystrzelony Sep 1, 2023 z Cape Canaveral Space Force Station

Loading…

Następne Przeloty (najbliższe 24 godziny)

TLE

ŚwieżeSource: CelesTrak SupGP

Epoka: Sep 15, 2026, 01:58 UTC

1 57738C 23131G   26258.08243056  .00012048  00000+0  43639-3 0  2581
2 57738  42.9996 182.6537 0001377 260.2168 117.5143 15.27572781    14

Śledź STARLINK-30351 w czasie rzeczywistym z AllMySat

Download on the App Store